Location: Izdebno
(52.6670°N, 16.2170°E)
Time: 07:16:55
(UTC+02:00)

Vanguard 1 - Pass Details

Date: 23 February 2024
Orbit: 653 x 3825 km, 34.2° (Epoch: 22 April)

Event Time Altitude Azimuth Distance (km) Brightness Sun altitude
Rises 22:03:39 0° 248° (WSW) 6,310 14.4 -40.2°
Reaches altitude 10° 22:07:32 10° 242° (WSW) 5,657 14.0 -40.6°
Enters shadow 22:20:47 42° 200° (SSW) 4,440 13.0 -41.9°
